Regional Weather Roundup
Issued by NWS

Home | Current Version | Previous Version | Text Only | Print | Product List | Glossary Off
Versions: 1 2 3 4 5 6 7 8 9 10 11 12 13 14 15 16 17 18 19 20 21 22 23 24 25 26 27 28 29 30 31 32 33 34 35 36 37 38 39 40 41 42 43 44 45 46 47 48 49 50

000
ASUS45 KBOI 282110
RWRID

IDAHO REGIONAL WEATHER ROUNDUP
NATIONAL WEATHER SERVICE BOISE ID
300 PM MDT TUE JUL 28 2015

NOTE: "FAIR" INDICATES FEW OR NO CLOUDS BELOW 12000 FEET
WITH NO SIGNIFICANT WEATHER AND/OR OBSTRUCTIONS TO VISIBILITY

IDZ012-014-282200-
SOUTHWEST IDAHO


CITY           SKY/WX    TMP DP  RH WIND       PRES   REMARKS
BOISE          SUNNY     76  36  23 W9        30.22F
CALDWELL       SUNNY     75  36  23 NW5       30.24S
MOUNTAIN HOME  SUNNY     76  29  17 NE8       30.23F
$$

IDZ016-017-282200-
SOUTHCENTRAL IDAHO


CITY           SKY/WX    TMP DP  RH WIND       PRES   REMARKS
BURLEY         SUNNY     70  28  21 S3        30.28F
JEROME         SUNNY     70  28  21 VRB5      30.28F
TWIN FALLS     SUNNY     74  31  20 N9        30.26F
$$

IDZ019>023-282200-
SOUTHEAST IDAHO


CITY           SKY/WX    TMP DP  RH WIND       PRES   REMARKS
IDAHO FALLS    MOSUNNY   66  31  27 VRB5      30.32S
POCATELLO      MOSUNNY   69  33  26 VRB7      30.31F
REXBURG        MOSUNNY   66  31  27 VRB5      30.32F
$$

IDZ006-010-011-018-031-032-282200-
CENTRAL IDAHO MOUNTAINS


CITY           SKY/WX    TMP DP  RH WIND       PRES   REMARKS
MCCALL         MOSUNNY   66  33  29 MISG      30.30S
HAILEY         MOSUNNY   64  36  34 SE10      30.33S
STANLEY          N/A     64  31  28 N8        30.36F
SALMON         PTSUNNY   63  41  45 N5        30.29F
CHALLIS        SUNNY     64  34  32 CALM      30.31F
$$

IDZ002-004-006-007-026-282200-
NORTHERN IDAHO


CITY           SKY/WX    TMP DP  RH WIND       PRES   REMARKS
LEWISTON       SUNNY     81  35  19 CALM      30.19F
LOWELL           N/A     82  44  26 VRB3      30.20F
COEUR D`ALENE  SUNNY     77  37  24 S9        30.20S
MULLAN PASS    MOSUNNY   59  34  39 NW9G18    30.33S
$$



USA.gov is the U.S. government's official web portal to all federal, state and local government web resources and services.